Location: Kunchanapalle
(16.4623°N, 80.6176°E)
Time: 09:48:12
(UTC+00:00)

Cosmos 1140 Rocket - Pass Details

Date: 13 August 2020
Orbit: 745 x 767 km, 74.1° (Epoch: 18 September)

Event Time Altitude Azimuth Distance (km) Brightness Sun altitude
Rises 13:53:05 0° 190° (S) 3,210 6.6 -12.2°
Reaches altitude 10° 13:55:26 10° 188° (S) 2,289 5.9 -12.8°
Maximum altitude 14:00:38 78° 103° (ESE) 783 3.4 -13.9°
Drops below altitude 10° 14:05:51 10° 17° (NNE) 2,299 6.0 -15.1°
Sets 14:08:13 0° 16° (NNE) 3,227 6.8 -15.6°
